GW4608 Weather Reports


Display with metric or nautical units.
time (UTC)temp
F
wind
direction
speed
MPH
gust
MPH
rain 1hr
in
rain 24hr
in
rain mn
in
humidity
%
barometer
mb
20260509201559 62 102 1.0 2.0 0.00 0.00 0.00 71 1010.4
20260509201057 62 99 1.0 2.0 0.00 0.00 0.00 71 1010.1
20260509200556 63 115 0.0 1.0 0.00 0.00 0.00 70 1010.0
20260509200053 63 206 0.0 0.0 0.00 0.00 0.00 71 1010.1
20260509195548 63 293 0.0 0.0 0.00 0.00 0.00 71 1010.0
20260509195043 63 237 0.0 0.0 0.00 0.00 0.00 70 1010.4
20260509194538 64 63 0.0 1.0 0.00 0.00 0.00 69 1010.1
20260509194036 63 199 0.0 0.0 0.00 0.00 0.00 69 1010.0
20260509193536 64 162 0.0 0.0 0.00 0.00 0.00 68 1010.0
20260509193033 64 106 0.0 1.0 0.00 0.00 0.00 67 1010.1
20260509192529 64 331 0.0 0.0 0.00 0.00 0.00 67 1010.2
20260509192025 64 330 0.0 1.0 0.00 0.00 0.00 68 1010.1
20260509191519 65 181 0.0 0.0 0.00 0.00 0.00 66 1010.1
20260509191015 64 2 0.0 0.0 0.00 0.00 0.00 68 1010.0
20260509190512 63 355 0.0 1.0 0.00 0.00 0.00 69 1010.2
20260509190010 64 22 1.0 2.0 0.00 0.00 0.00 68 1010.1
20260509185507 64 71 1.0 2.0 0.00 0.00 0.00 66 1010.1
20260509185004 64 17 0.0 2.0 0.00 0.00 0.00 66 1010.2
20260509184502 66 20 2.0 3.0 0.00 0.00 0.00 63 1010.4
20260509183958 65 70 0.0 1.0 0.00 0.00 0.00 62 1010.2
20260509183458 65 100 0.0 2.0 0.00 0.00 0.00 63 1010.2
20260509182955 66 94 0.0 1.0 0.00 0.00 0.00 66 1010.4
20260509182451 65 25 0.0 1.0 0.00 0.00 0.00 66 1010.5
20260509181949 65 53 0.0 1.0 0.00 0.00 0.00 64 1010.6
20260509181447 64 25 1.0 1.0 0.00 0.00 0.00 67 1010.7
20260509180944 63 65 0.0 0.0 0.00 0.00 0.00 70 1010.8
20260509180439 62 9 1.0 2.0 0.00 0.00 0.00 66 1010.7
20260509175936 63 19 1.0 1.0 0.00 0.00 0.00 70 1010.7
20260509175433 63 13 2.0 3.0 0.00 0.00 0.00 66 1010.8
20260509174929 63 51 0.0 1.0 0.00 0.00 0.00 68 1010.7
20260509174425 63 111 0.0 1.0 0.00 0.00 0.00 68 1010.7
20260509173921 63 97 2.0 2.0 0.00 0.00 0.00 67 1010.8
20260509173421 62 32 0.0 0.0 0.00 0.00 0.00 69 1011.0
20260509172918 62 341 1.0 2.0 0.00 0.00 0.00 69 1010.8
20260509172414 61 21 0.0 2.0 0.00 0.00 0.00 72 1011.0
20260509171910 61 21 1.0 2.0 0.00 0.00 0.00 74 1011.3
20260509171407 62 329 1.0 2.0 0.00 0.00 0.00 73 1011.2
20260509170903 60 64 0.0 1.0 0.00 0.00 0.00 76 1011.4
20260509170358 60 1 0.0 1.0 0.00 0.00 0.00 74 1011.4
20260509165854 60 348 0.0 0.0 0.00 0.00 0.00 77 1011.4
20260509165348 60 4 0.0 1.0 0.00 0.00 0.00 77 1011.4
20260509164844 60 8 0.0 1.0 0.00 0.00 0.00 76 1011.4
20260509164341 59 7 0.0 0.0 0.00 0.00 0.00 78 1011.6
20260509163837 59 11 2.0 2.0 0.00 0.00 0.00 76 1011.5
20260509163328 59 4 0.0 1.0 0.00 0.00 0.00 75 1011.6
20260509162827 59 348 1.0 2.0 0.00 0.00 0.00 77 1011.7
20260509162325 59 12 0.0 2.0 0.00 0.00 0.00 79 1011.5
20260509161822 59 11 0.0 2.0 0.00 0.00 0.00 79 1011.8
20260509161319 59 333 0.0 1.0 0.00 0.00 0.00 76 1012.0
20260509160814 58 226 0.0 0.0 0.00 0.00 0.00 76 1012.0
20260509160310 58 227 0.0 0.0 0.00 0.00 0.00 76 1012.0
20260509155806 58 227 0.0 0.0 0.00 0.00 0.00 78 1012.0
20260509155306 58 227 0.0 1.0 0.00 0.00 0.00 80 1012.1
20260509154758 58 338 0.0 1.0 0.00 0.00 0.00 78 1012.2
20260509154256 58 9 0.0 1.0 0.00 0.00 0.00 76 1012.2
20260509153752 58 8 0.0 0.0 0.00 0.00 0.00 79 1012.2
20260509153243 58 11 2.0 3.0 0.00 0.00 0.00 77 1012.2
20260509152740 58 355 1.0 1.0 0.00 0.00 0.00 78 1012.1
20260509152237 57 341 1.0 3.0 0.00 0.00 0.00 77 1012.0
20260509151733 58 358 1.0 1.0 0.00 0.00 0.00 76 1011.9
20260509151230 58 3 1.0 2.0 0.00 0.00 0.00 77 1012.3
20260509150727 57 344 1.0 2.0 0.00 0.00 0.00 76 1012.2
20260509150226 57 339 0.0 2.0 0.00 0.00 0.00 79 1012.3
20260509145722 58 16 1.0 2.0 0.00 0.00 0.00 79 1012.4
20260509145217 58 102 0.0 0.0 0.00 0.00 0.00 77 1012.2
20260509144714 57 44 0.0 1.0 0.00 0.00 0.00 78 1012.3
20260509144211 58 7 1.0 2.0 0.00 0.00 0.00 79 1012.3
20260509143708 56 355 0.0 0.0 0.00 0.00 0.00 81 1012.4
20260509143205 56 349 0.0 1.0 0.00 0.00 0.00 79 1012.3
20260509142700 56 332 1.0 1.0 0.00 0.00 0.00 79 1012.2
20260509142157 55 350 1.0 2.0 0.00 0.00 0.00 79 1012.1
20260509141653 56 3 0.0 1.0 0.00 0.00 0.00 80 1012.4
20260509141150 55 5 0.0 0.0 0.00 0.00 0.00 80 1012.4
20260509140647 54 345 0.0 2.0 0.00 0.00 0.00 81 1012.4
20260509140144 54 345 1.0 1.0 0.00 0.00 0.00 83 1012.3
20260509135641 54 171 0.0 0.0 0.00 0.00 0.00 85 1012.4
20260509135140 54 169 0.0 0.0 0.00 0.00 0.00 86 1012.4
20260509134636 53 169 0.0 0.0 0.00 0.00 0.00 87 1012.4
20260509134133 53 168 0.0 1.0 0.00 0.00 0.00 88 1012.5
20260509133631 53 168 1.0 1.0 0.00 0.00 0.00 88 1012.4
20260509133128 53 169 0.0 0.0 0.00 0.00 0.00 88 1012.5
20260509132626 53 225 1.0 1.0 0.00 0.00 0.00 87 1012.5
20260509132124 53 271 0.0 0.0 0.00 0.00 0.00 86 1012.5
20260509131620 53 271 0.0 1.0 0.00 0.00 0.00 85 1012.3
20260509131117 53 293 1.0 2.0 0.00 0.00 0.00 86 1012.4
20260509130613 52 276 1.0 2.0 0.00 0.00 0.00 88 1012.4
20260509130109 52 296 1.0 1.0 0.00 0.00 0.00 89 1012.2
20260509125606 52 350 0.0 0.0 0.00 0.00 0.00 87 1012.1
20260509125102 52 350 0.0 0.0 0.00 0.00 0.00 86 1012.3
20260509124559 52 351 0.0 1.0 0.00 0.00 0.00 86 1012.0
20260509124056 52 253 0.0 0.0 0.00 0.00 0.00 86 1012.3
20260509123554 52 288 0.0 0.0 0.00 0.00 0.00 83 1012.2
20260509123050 52 287 0.0 0.0 0.00 0.00 0.00 85 1012.3
20260509122546 52 288 0.0 0.0 0.00 0.00 0.00 85 1012.3
20260509122044 52 288 0.0 0.0 0.00 0.00 0.00 85 1012.3
20260509121540 52 288 0.0 0.0 0.00 0.00 0.00 85 1012.1
20260509121038 52 287 0.0 0.0 0.00 0.00 0.00 85 1012.3
20260509120536 51 287 0.0 0.0 0.00 0.00 0.00 84 1012.4
20260509120034 51 288 1.0 1.0 0.00 0.00 0.00 85 1012.3
20260509115531 51 287 0.0 0.0 0.00 0.00 0.00 87 1012.5
20260509115028 51 288 1.0 1.0 0.00 0.00 0.00 86 1012.3
20260509114526 51 303 1.0 1.0 0.00 0.00 0.00 86 1012.5
20260509114025 51 65 0.0 0.0 0.00 0.00 0.00 86 1012.4
20260509113523 51 57 1.0 1.0 0.00 0.00 0.00 84 1012.4
20260509113021 51 11 0.0 0.0 0.00 0.00 0.00 83 1012.2
20260509112517 51 11 0.0 0.0 0.00 0.00 0.00 84 1012.2
20260509112014 51 8 1.0 2.0 0.00 0.00 0.00 84 1012.0
20260509111511 51 350 1.0 1.0 0.00 0.00 0.00 85 1012.1
20260509111008 51 13 1.0 2.0 0.00 0.00 0.00 85 1011.9
20260509110505 51 21 0.0 0.0 0.00 0.00 0.00 81 1012.1
20260509110002 51 21 0.0 0.0 0.00 0.00 0.00 77 1012.0
20260509105501 51 21 0.0 0.0 0.00 0.00 0.00 79 1011.9
20260509104958 51 342 0.0 1.0 0.00 0.00 0.00 81 1012.0
20260509104454 51 158 0.0 0.0 0.00 0.00 0.00 81 1011.8
20260509103951 51 225 1.0 1.0 0.00 0.00 0.00 82 1011.9
20260509103449 50 357 0.0 0.0 0.00 0.00 0.00 81 1011.8
20260509102947 50 356 0.0 1.0 0.00 0.00 0.00 84 1012.0
20260509102444 51 358 2.0 3.0 0.00 0.00 0.00 81 1011.7
20260509101940 51 352 0.0 1.0 0.00 0.00 0.00 78 1011.4
20260509101436 51 354 1.0 1.0 0.00 0.00 0.00 80 1011.4
20260509100934 51 355 1.0 2.0 0.00 0.00 0.00 82 1011.5
20260509100431 51 224 0.0 1.0 0.00 0.00 0.00 82 1011.7
20260509095927 51 223 0.0 0.0 0.00 0.00 0.00 81 1011.7
20260509095424 51 222 0.0 1.0 0.00 0.00 0.00 81 1011.5
20260509094921 51 260 0.0 0.0 0.00 0.00 0.00 81 1011.7
20260509094418 51 265 1.0 2.0 0.00 0.00 0.00 81 1011.7
20260509093916 51 297 0.0 1.0 0.00 0.00 0.00 83 1011.9
20260509093413 51 253 0.0 1.0 0.00 0.00 0.00 84 1011.8
20260509092911 50 287 0.0 0.0 0.00 0.00 0.00 83 1011.8
20260509092409 50 242 0.0 0.0 0.00 0.00 0.00 83 1011.9
20260509091907 50 15 0.0 0.0 0.00 0.00 0.00 85 1011.9
20260509091403 50 16 0.0 1.0 0.00 0.00 0.00 85 1011.9
20260509090901 50 18 0.0 0.0 0.00 0.00 0.00 84 1011.9
20260509090358 51 19 2.0 2.0 0.00 0.00 0.00 82 1011.7
20260509085855 52 22 1.0 2.0 0.00 0.00 0.00 78 1011.9
20260509085353 54 17 1.0 1.0 0.00 0.00 0.00 75 1011.7
20260509084848 56 179 0.0 2.0 0.00 0.00 0.00 62 1011.7
20260509084346 57 202 1.0 2.0 0.00 0.00 0.00 57 1011.7
20260509083843 56 209 3.0 3.0 0.00 0.00 0.00 57 1011.8
20260509083340 56 210 0.0 1.0 0.00 0.00 0.00 61 1011.6
20260509082836 56 208 0.0 1.0 0.00 0.00 0.00 60 1011.6
20260509082333 56 225 2.0 3.0 0.00 0.00 0.00 59 1011.4
20260509081831 56 247 0.0 2.0 0.00 0.00 0.00 57 1011.4
20260509081327 56 245 0.0 0.0 0.00 0.00 0.00 60 1011.6
20260509080826 56 265 1.0 2.0 0.00 0.00 0.00 59 1011.5
20260509080323 56 264 0.0 1.0 0.00 0.00 0.00 61 1011.6
20260509075822 56 251 2.0 3.0 0.00 0.00 0.00 61 1011.5
20260509075318 56 233 2.0 4.0 0.00 0.00 0.00 59 1011.6
20260509074815 56 255 2.0 3.0 0.00 0.00 0.00 60 1011.6
20260509074313 54 253 1.0 3.0 0.00 0.00 0.00 64 1011.8
20260509073809 51 223 0.0 0.0 0.00 0.00 0.00 73 1011.6
20260509073305 50 148 0.0 0.0 0.00 0.00 0.00 79 1011.7
20260509072802 51 183 0.0 0.0 0.00 0.00 0.00 82 1011.8
20260509072259 50 308 0.0 0.0 0.00 0.00 0.00 83 1011.7
20260509071755 50 318 0.0 0.0 0.00 0.00 0.00 84 1011.7
20260509071252 49 122 0.0 0.0 0.00 0.00 0.00 84 1011.6
20260509070749 50 117 0.0 0.0 0.00 0.00 0.00 84 1011.6
20260509070246 50 353 0.0 0.0 0.00 0.00 0.00 83 1011.8
20260509065742 49 354 0.0 1.0 0.00 0.00 0.00 84 1011.9
20260509065239 49 306 0.0 0.0 0.00 0.00 0.00 83 1011.6
20260509064735 49 306 1.0 1.0 0.00 0.00 0.00 83 1011.7
20260509064233 49 306 0.0 0.0 0.00 0.00 0.00 82 1011.8
20260509063730 49 305 0.0 0.0 0.00 0.00 0.00 84 1011.7
20260509063226 50 305 0.0 0.0 0.00 0.00 0.00 82 1011.8
20260509062723 50 278 0.0 0.0 0.00 0.00 0.00 78 1011.8
20260509062220 50 355 0.0 1.0 0.00 0.00 0.00 79 1011.9
20260509061717 50 357 0.0 0.0 0.00 0.00 0.00 82 1011.9
20260509061215 50 357 0.0 0.0 0.00 0.00 0.00 82 1011.9
20260509060712 51 12 0.0 0.0 0.00 0.00 0.00 80 1011.9
20260509060209 51 353 1.0 1.0 0.00 0.00 0.00 80 1012.1
20260509055704 53 103 1.0 1.0 0.00 0.00 0.00 78 1012.2
20260509055201 53 276 1.0 2.0 0.00 0.00 0.00 70 1012.1
20260509054657 52 281 0.0 1.0 0.00 0.00 0.00 79 1012.0
20260509054154 52 280 1.0 1.0 0.00 0.00 0.00 79 1012.3
20260509053653 52 311 1.0 1.0 0.00 0.00 0.00 79 1012.1
20260509053149 52 98 1.0 2.0 0.00 0.00 0.00 79 1011.9
20260509052647 52 285 0.0 0.0 0.00 0.00 0.00 76 1012.4
20260509052144 52 277 0.0 0.0 0.00 0.00 0.00 77 1012.3
20260509051642 52 275 0.0 1.0 0.00 0.00 0.00 78 1012.5
20260509051139 52 253 0.0 0.0 0.00 0.00 0.00 78 1012.6
20260509050636 52 350 0.0 0.0 0.00 0.00 0.00 76 1012.5
20260509050132 53 231 0.0 0.0 0.00 0.00 0.00 78 1012.5
20260509045631 53 228 0.0 0.0 0.00 0.00 0.00 77 1012.4
20260509045127 53 228 0.0 1.0 0.00 0.00 0.00 76 1012.6
20260509044624 53 295 1.0 1.0 0.00 0.00 0.00 75 1012.5
20260509044122 53 265 0.0 1.0 0.00 0.00 0.00 74 1012.3
20260509043618 53 267 1.0 1.0 0.00 0.00 0.00 73 1012.5
20260509043113 53 242 0.0 1.0 0.00 0.00 0.00 77 1012.4
20260509042610 53 260 1.0 1.0 0.00 0.00 0.00 75 1012.3
20260509042106 53 215 0.0 1.0 0.00 0.00 0.00 76 1012.4
20260509041603 53 249 0.0 1.0 0.00 0.00 0.00 76 1012.4
20260509041101 53 246 1.0 1.0 0.00 0.00 0.00 78 1012.4
20260509040559 53 138 1.0 1.0 0.00 0.00 0.00 79 1012.5
20260509040055 55 273 0.0 0.0 0.00 0.00 0.00 74 1012.6
20260509035552 55 329 2.0 2.0 0.00 0.00 0.00 64 1012.5
20260509035049 55 321 2.0 2.0 0.00 0.00 0.00 64 1012.4
20260509034547 54 311 1.0 2.0 0.00 0.00 0.00 70 1012.6
20260509034044 54 269 1.0 1.0 0.00 0.00 0.00 74 1012.5
20260509033541 54 158 0.0 0.0 0.00 0.00 0.00 73 1012.5
20260509033039 53 166 0.0 1.0 0.00 0.00 0.00 74 1012.5
20260509032536 53 161 1.0 2.0 0.00 0.00 0.00 76 1012.6
20260509032032 55 304 0.0 1.0 0.00 0.00 0.00 69 1012.6
20260509031530 54 320 2.0 2.0 0.00 0.00 0.00 67 1012.4
20260509031027 54 341 2.0 2.0 0.00 0.00 0.00 72 1012.5
20260509030525 54 260 0.0 1.0 0.00 0.00 0.00 74 1012.4
20260509030021 54 261 1.0 1.0 0.00 0.00 0.00 75 1012.5
20260509025517 54 323 0.0 0.0 0.00 0.00 0.00 71 1012.5
20260509025013 54 323 0.0 0.0 0.00 0.00 0.00 69 1012.5
20260509024509 54 323 0.0 0.0 0.00 0.00 0.00 68 1012.7
20260509024006 55 324 0.0 0.0 0.00 0.00 0.00 70 1012.7
20260509023503 55 285 1.0 1.0 0.00 0.00 0.00 64 1012.6
20260509023000 54 285 0.0 0.0 0.00 0.00 0.00 66 1012.7
20260509022457 55 285 0.0 0.0 0.00 0.00 0.00 67 1012.6
20260509021955 55 285 0.0 0.0 0.00 0.00 0.00 70 1012.6
20260509021452 55 285 0.0 0.0 0.00 0.00 0.00 70 1012.5
20260509020948 55 285 0.0 0.0 0.00 0.00 0.00 66 1012.7
20260509020447 56 285 0.0 1.0 0.00 0.00 0.00 68 1012.6
20260509015943 55 248 0.0 1.0 0.00 0.00 0.00 65 1012.5
20260509015443 55 247 0.0 0.0 0.00 0.00 0.00 70 1012.5
20260509014938 55 227 0.0 0.0 0.00 0.00 0.00 67 1012.7
20260509014435 55 245 1.0 1.0 0.00 0.00 0.00 66 1012.5
20260509013931 55 322 0.0 0.0 0.00 0.00 0.00 64 1012.5
20260509013428 56 1 1.0 2.0 0.00 0.00 0.00 65 1012.3
20260509012924 56 296 2.0 2.0 0.00 0.00 0.00 62 1012.1
20260509012421 56 264 0.0 0.0 0.00 0.00 0.00 69 1012.2
20260509011918 56 264 0.0 1.0 0.00 0.00 0.00 63 1012.2
20260509011415 55 262 0.0 0.0 0.00 0.00 0.00 69 1012.1
20260509010913 56 262 1.0 1.0 0.00 0.00 0.00 62 1012.1
20260509010410 56 262 0.0 1.0 0.00 0.00 0.00 63 1012.2
20260509005907 56 263 0.0 0.0 0.00 0.00 0.00 61 1012.0
20260509005405 56 266 0.0 0.0 0.00 0.00 0.00 59 1012.0
20260509004905 56 266 0.0 1.0 0.00 0.00 0.00 61 1012.2
20260509004402 57 245 1.0 1.0 0.00 0.00 0.00 60 1012.0
20260509003900 58 280 0.0 0.0 0.00 0.00 0.00 57 1012.1
20260509003357 58 280 1.0 1.0 0.00 0.00 0.00 55 1012.0
20260509002854 59 287 1.0 2.0 0.00 0.00 0.00 55 1012.0
20260509002352 60 288 1.0 2.0 0.00 0.00 0.00 49 1012.1
20260509001849 60 274 0.0 1.0 0.00 0.00 0.00 49 1012.1
20260509001345 62 274 0.0 2.0 0.00 0.00 0.00 47 1012.1
20260509000842 62 305 0.0 2.0 0.00 0.00 0.00 42 1012.1
20260509000340 61 280 1.0 2.0 0.00 0.00 0.00 44 1012.0
20260508235836 62 277 1.0 2.0 0.00 0.00 0.00 46 1012.0
20260508235333 63 275 2.0 2.0 0.00 0.00 0.00 46 1011.9
20260508234830 64 260 1.0 1.0 0.00 0.00 0.00 41 1011.8
20260508234327 65 293 1.0 2.0 0.00 0.00 0.00 40 1012.1
20260508233825 66 278 1.0 2.0 0.00 0.00 0.00 40 1011.8
20260508233324 67 302 3.0 3.0 0.00 0.00 0.00 37 1011.9
20260508232821 68 240 0.0 1.0 0.00 0.00 0.00 38 1011.7
20260508232317 68 288 2.0 2.0 0.00 0.00 0.00 37 1011.8
20260508231816 68 317 3.0 3.0 0.00 0.00 0.00 37 1011.9
20260508231311 68 276 2.0 4.0 0.00 0.00 0.00 34 1011.4
20260508230808 69 269 2.0 6.0 0.00 0.00 0.00 37 1011.6
20260508230305 69 311 3.0 4.0 0.00 0.00 0.00 36 1011.6
20260508225802 69 279 3.0 7.0 0.00 0.00 0.00 38 1011.7
20260508225258 69 311 4.0 7.0 0.00 0.00 0.00 36 1011.7
20260508224757 69 269 3.0 6.0 0.00 0.00 0.00 34 1011.9
20260508224254 69 270 2.0 3.0 0.00 0.00 0.00 35 1011.8
20260508223752 69 280 1.0 9.0 0.00 0.00 0.00 37 1011.7
20260508223249 70 301 3.0 4.0 0.00 0.00 0.00 35 1011.9
20260508222746 70 216 2.0 6.0 0.00 0.00 0.00 35 1011.7
20260508222243 69 294 1.0 3.0 0.00 0.00 0.00 34 1011.9
20260508221739 69 290 4.0 7.0 0.00 0.00 0.00 37 1011.8
20260508221235 69 269 4.0 10.0 0.00 0.00 0.00 37 1011.8
20260508220731 69 318 5.0 7.0 0.00 0.00 0.00 36 1011.7
20260508220229 69 328 3.0 8.0 0.00 0.00 0.00 35 1011.8
20260508215725 69 300 3.0 6.0 0.00 0.00 0.00 36 1012.0
20260508215221 69 241 1.0 7.0 0.00 0.00 0.00 38 1011.7
20260508214719 69 275 7.0 9.0 0.00 0.00 0.00 35 1011.7
20260508214216 70 232 3.0 6.0 0.00 0.00 0.00 33 1012.0
20260508213712 69 264 3.0 8.0 0.00 0.00 0.00 35 1012.1
20260508213209 69 307 4.0 6.0 0.00 0.00 0.00 35 1012.2
20260508212705 68 254 1.0 2.0 0.00 0.00 0.00 36 1012.5
20260508212202 69 332 2.0 3.0 0.00 0.00 0.00 39 1012.3
20260508211657 69 323 5.0 7.0 0.00 0.00 0.00 34 1012.4
20260508211153 67 349 3.0 7.0 0.00 0.00 0.00 37 1012.3
20260508210651 68 309 5.0 7.0 0.00 0.00 0.00 38 1012.4
20260508210148 69 271 2.0 3.0 0.00 0.00 0.00 35 1012.3
20260508205645 69 232 2.0 7.0 0.00 0.00 0.00 36 1012.3
20260508205141 69 248 3.0 6.0 0.00 0.00 0.00 36 1012.4
20260508204637 68 262 3.0 7.0 0.00 0.00 0.00 36 1012.5
20260508204134 68 308 2.0 13.0 0.00 0.00 0.00 37 1012.6
20260508203631 66 261 4.0 7.0 0.00 0.00 0.00 37 1012.7
20260508203127 66 314 6.0 9.0 0.00 0.00 0.00 37 1012.6
20260508202623 66 296 5.0 8.0 0.00 0.00 0.00 37 1012.8
20260508202120 66 307 5.0 7.0 0.00 0.00 0.00 37 1012.8